EW6978 Weather Reports


Display with metric or nautical units.
time (UTC)temp
F
wind
direction
speed
MPH
gust
MPH
rain 1hr
in
rain 24hr
in
rain mn
in
humidity
%
barometer
mb
20260509100041 54 0.0 0.0 0.00 0.00 0.00 79 982.8
20260509094537 55 0.0 0.0 0.00 0.00 0.00 77 983.1
20260509093027 55 0.0 0.0 0.00 0.00 0.00 78 983.2
20260509091535 54 0.0 0.0 0.00 0.00 0.00 78 983.4
20260509090023 54 0.0 0.0 0.00 0.00 0.00 78 983.4
20260509084513 54 0.0 0.0 0.00 0.00 0.00 77 983.6
20260509083012 54 0.0 0.0 0.00 0.00 0.00 75 983.6
20260509081505 54 0.0 0.0 0.00 0.00 0.00 72 983.8
20260509074558 55 0.0 0.0 0.00 0.00 0.00 70 984.1
20260509073104 55 0.0 0.0 0.00 0.00 0.00 69 984.4
20260509071555 56 0.0 0.0 0.00 0.00 0.00 68 984.9
20260509070046 56 0.0 0.0 0.00 0.00 0.00 66 985.1
20260509064543 57 0.0 0.0 0.00 0.00 0.00 62 985.6
20260509063034 56 0.0 0.0 0.00 0.00 0.00 59 985.9
20260509061531 55 0.0 0.0 0.00 0.00 0.00 54 985.9
20260509060029 55 0.0 0.0 0.00 0.00 0.00 52 986.3
20260509054521 54 0.0 0.0 0.00 0.00 0.00 51 986.4
20260509053018 55 0.0 0.0 0.00 0.00 0.00 50 986.3
20260509051513 55 0.0 0.0 0.00 0.00 0.00 50 986.6
20260509050011 54 0.0 0.0 0.00 0.00 0.00 50 986.7
20260509044505 54 0.0 0.0 0.00 0.00 0.00 46 986.7
20260509043104 54 0.0 0.0 0.00 0.00 0.00 42 986.9
20260509041618 54 0.0 0.0 0.00 0.00 0.00 37 987.1
20260509040051 55 0.0 0.0 0.00 0.00 0.00 33 987.2
20260509034546 55 0.0 0.0 0.00 0.00 0.00 31 987.5
20260509033043 55 0.0 0.0 0.00 0.00 0.00 30 987.6
20260509031539 55 0.0 0.0 0.00 0.00 0.00 30 987.6
20260509030034 55 0.0 0.0 0.00 0.00 0.00 30 987.8
20260509024530 54 0.0 0.0 0.00 0.00 0.00 33 987.9
20260509023028 54 0.0 0.0 0.00 0.00 0.00 35 988.0
20260509021523 54 0.0 0.0 0.00 0.00 0.00 36 988.1
20260509020024 54 0.0 0.0 0.00 0.00 0.00 35 988.0
20260509014517 54 0.0 0.0 0.00 0.00 0.00 35 988.0
20260509013017 55 0.0 0.0 0.00 0.00 0.00 35 988.0
20260509011503 55 0.0 0.0 0.00 0.00 0.00 34 988.0
20260509010059 56 0.0 0.0 0.00 0.00 0.00 33 988.1
20260509004556 57 0.0 0.0 0.00 0.00 0.00 32 988.0
20260509003051 58 0.0 0.0 0.00 0.00 0.00 31 988.0
20260509001546 58 0.0 0.0 0.00 0.00 0.00 30 988.1
20260509000042 59 0.0 0.0 0.00 0.00 0.00 30 988.3
20260508234540 59 0.0 0.0 0.00 0.00 0.00 30 988.4
20260508233037 59 0.0 0.0 0.00 0.00 0.00 30 988.6
20260508231529 60 0.0 0.0 0.00 0.00 0.00 29 988.7
20260508230038 60 0.0 0.0 0.00 0.00 0.00 29 988.9
20260508224525 61 0.0 0.0 0.00 0.00 0.00 30 989.0
20260508223016 61 0.0 0.0 0.00 0.00 0.00 29 989.1
20260508221511 61 0.0 0.0 0.00 0.00 0.00 29 989.1
20260508220006 62 0.0 0.0 0.00 0.00 0.00 31 989.2
20260508214509 62 0.0 0.0 0.00 0.00 0.00 31 989.4
20260508213058 62 0.0 0.0 0.00 0.00 0.00 29 989.4
20260508211556 62 0.0 0.0 0.00 0.00 0.00 31 989.6
20260508210050 62 0.0 0.0 0.00 0.00 0.00 29 989.7
20260508204551 62 0.0 0.0 0.00 0.00 0.00 28 989.9
20260508203040 62 0.0 0.0 0.00 0.00 0.00 28 990.1
20260508201538 62 0.0 0.0 0.00 0.00 0.00 29 990.2
20260508200031 63 0.0 0.0 0.00 0.00 0.00 30 990.3
20260508194533 63 0.0 0.0 0.00 0.00 0.00 29 990.6
20260508193023 62 0.0 0.0 0.00 0.00 0.00 29 990.7
20260508191526 62 0.0 0.0 0.00 0.00 0.00 28 990.9
20260508190015 61 0.0 0.0 0.00 0.00 0.00 29 991.1
20260508184510 60 0.0 0.0 0.00 0.00 0.00 31 991.3
20260508183009 62 0.0 0.0 0.00 0.00 0.00 30 991.4
20260508181504 61 0.0 0.0 0.00 0.00 0.00 31 991.6
20260508180057 61 0.0 0.0 0.00 0.00 0.00 33 991.9
20260508174557 61 0.0 0.0 0.00 0.00 0.00 35 992.1
20260508173048 60 0.0 0.0 0.00 0.00 0.00 37 992.4
20260508171544 60 0.0 0.0 0.00 0.00 0.00 34 992.6
20260508170039 59 0.0 0.0 0.00 0.00 0.00 35 992.8
20260508164538 59 0.0 0.0 0.00 0.00 0.00 40 992.8
20260508163031 59 0.0 0.0 0.00 0.00 0.00 37 993.0
20260508161526 59 0.0 0.0 0.00 0.00 0.00 34 993.0
20260508160021 59 0.0 0.0 0.00 0.00 0.00 36 992.9
20260508154538 58 0.0 0.0 0.00 0.00 0.00 40 992.9
20260508153013 58 0.0 0.0 0.00 0.00 0.00 41 993.1
20260508151512 57 0.0 0.0 0.00 0.00 0.00 41 993.1
20260508150005 58 0.0 0.0 0.00 0.00 0.00 38 993.0
20260508144610 57 0.0 0.0 0.00 0.00 0.00 43 993.1
20260508143102 56 0.0 0.0 0.00 0.00 0.00 40 993.2
20260508141559 55 0.0 0.0 0.00 0.00 0.00 45 993.3
20260508140047 54 0.0 0.0 0.00 0.00 0.00 48 993.2
20260508134556 53 0.0 0.0 0.00 0.00 0.00 55 993.3
20260508133049 52 0.0 0.0 0.00 0.00 0.00 62 993.4
20260508131534 50 0.0 0.0 0.00 0.00 0.00 67 993.6
20260508130033 47 0.0 0.0 0.00 0.00 0.00 74 993.7
20260508124530 44 0.0 0.0 0.00 0.00 0.00 78 993.8
20260508123041 42 0.0 0.0 0.00 0.00 0.00 82 993.7
20260508121519 40 0.0 0.0 0.00 0.00 0.00 84 993.6
20260508120012 38 0.0 0.0 0.00 0.00 0.00 84 993.6
20260508114508 36 0.0 0.0 0.00 0.00 0.00 88 993.4
20260508113004 34 0.0 0.0 0.00 0.00 0.00 89 993.4
20260508111559 33 0.0 0.0 0.00 0.00 0.00 89 993.3
20260508110104 33 0.0 0.0 0.00 0.00 0.00 89 993.4
20260508104550 32 0.0 0.0 0.00 0.00 0.00 89 993.3
20260508103047 32 0.0 0.0 0.00 0.00 0.00 89 993.3
20260508101543 32 0.0 0.0 0.00 0.00 0.00 88 993.2